[Date Prev][Date Next][Thread Prev][Thread Next] - [Date Index][Thread Index][Author Index]
2 Line ISS Keps 10-8
- Subject: [sarex] 2 Line ISS Keps 10-8
- From: "Dave Larsen PhD" <doc@xxxxxxxxxxx>
- Date: Wed, 8 Oct 2003 03:14:42 -0700
ISS
1 25544U 98067A 03281.09429191 .00020485 00000-0 23370-3 0 6061
2 25544 51.6305 171.2664 0006280 19.6497 128.3573 15.62176817278641
----
Via the sarex mailing list at AMSAT.ORG courtesy of AMSAT-NA.
To unsubscribe, send "unsubscribe sarex" to Majordomo@amsat.org
AMSAT Home